This is the latest recevied weather packets stored in our database for station/object KI8L. If no packets are shown the sender has not sent any weather packets the latest 10 day(s).
| Time | Temp. | Humidity | Pressure | Rain* | Wind** | Luminosity | Snow |
|---|---|---|---|---|---|---|---|
| 1777936368 | 21.11° C | 58% | 1006.4 hPa | 0 mm | - | 43 W/m² | - |
| 1777936064 | 21.67° C | 57% | 1006.3 hPa | 0 mm | - | 53 W/m² | - |
| 1777935763 | 21.67° C | 58% | 1006.6 hPa | 0 mm | - | 82 W/m² | - |
| 1777935461 | 21.11° C | 56% | 1006.7 hPa | 0 mm | - | 126 W/m² | - |
| 1777935157 | 21.11° C | 58% | 1006.6 hPa | 0 mm | - | 57 W/m² | - |
| 1777934854 | 21.67° C | 57% | 1006.8 hPa | 0 mm | - | 48 W/m² | - |
| 1777934551 | 21.67° C | 57% | 1006.7 hPa | 0 mm | - | 101 W/m² | - |
| 1777934248 | 21.67° C | 57% | 1006.8 hPa | 0 mm | - | 63 W/m² | - |
| 1777933943 | 22.22° C | 57% | 1007.1 hPa | 0 mm | - | 171 W/m² | - |
| 1777933641 | 22.22° C | 56% | 1006.7 hPa | 0 mm | - | 190 W/m² | - |
| 1777933337 | 22.22° C | 57% | 1006.7 hPa | 0 mm | - | 219 W/m² | - |
| 1777933035 | 22.22° C | 59% | 1006.8 hPa | 0 mm | - | 239 W/m² | - |
| 1777932732 | 22.22° C | 56% | 1006.7 hPa | 0 mm | - | 131 W/m² | - |
| 1777932428 | 22.22° C | 55% | 1007.1 hPa | 0 mm | - | 187 W/m² | - |
| 1777932126 | 22.22° C | 56% | 1007.1 hPa | 0 mm | - | 286 W/m² | - |
| 1777931822 | 22.22° C | 55% | 1007.2 hPa | 0 mm | - | 130 W/m² | - |
| 1777931519 | 22.22° C | 57% | 1007.2 hPa | 0 mm | - | 120 W/m² | - |
| 1777931215 | 21.67° C | 57% | 1007.1 hPa | 0 mm | - | 135 W/m² | - |
| 1777930912 | 21.67° C | 60% | 1007.1 hPa | 0 mm | - | 125 W/m² | - |
| 1777930608 | 21.67° C | 59% | 1006.7 hPa | 0 mm | - | 109 W/m² | - |
| 1777930305 | 21.67° C | 59% | 1006.8 hPa | 0 mm | - | 94 W/m² | - |
| 1777930002 | 21.67° C | 58% | 1006.9 hPa | 0 mm | - | 104 W/m² | - |
| 1777929698 | 21.67° C | 58% | 1006.9 hPa | 0 mm | - | 140 W/m² | - |
| 1777929396 | 21.67° C | 58% | 1006.8 hPa | 0 mm | - | 119 W/m² | - |
| 1777929092 | 21.67° C | 58% | 1006.9 hPa | 0 mm | - | 87 W/m² | - |
* Rain latest hour (hover to see other rain measurements)
** Current wind speed in m/s (hover to see current wind gust speed)